Warrenton, OR

3:35 PM PDT on August 31, 2016 (GMT -0700)
Astoria Regional

Weather History for KAST - January, 2013

Change the Weather History Date:

Tuesday, January 15, 2013

  Actual Average Record
Temperature  
Mean Temperature 38 °F 44 °F  
Max Temperature 44 °F 50 °F 61 °F (1965)
Min Temperature 32 °F 38 °F 18 °F (1907)
Degree Days  
Heating Degree Days 27 21  
Month to date heating degree days 374 324  
Since 1 July heating degree days 2440 2430  
Cooling Degree Days 0 0  
Month to date cooling degree days 0 0  
Year to date cooling degree days 0 0  
Moisture  
Dew Point 34 °F    
Average Humidity 85    
Maximum Humidity 100    
Minimum Humidity 70    
Precipitation  
Precipitation 0.01 in 0.34 in 1.70 in (2011)
Month to date precipitation 4.23 5.18  
Year to date precipitation 4.23 5.18  
Snow  
Snow 0.00 in - - ()
Month to date snowfall 0.0  
Snow Depth 0.00 in    
Sea Level Pressure  
Sea Level Pressure 30.62 in    
Wind  
Wind Speed 5 mph (ENE)    
Max Wind Speed 13 mph    
Max Gust Speed 17 mph    
Visibility 8 miles    
Events Rain    
T = Trace of Precipitation, MM = Missing Value Source: NWS Daily Summary

Daily Weather History Graph

Daily Weather History Graph

Search for Another Location

Airport or City:

Trip Planner

Search our weather history database for the weather conditions in past years. The results will help you decide how hot, cold, wet, or windy it might be!

Date:

Astronomy

Jan. 15, 2013 Rise Set
Actual Time 7:53 AM PST 4:56 PM PST
Civil Twilight 7:20 AM PST 5:30 PM PST
Nautical Twilight 6:43 AM PST 6:07 PM PST
Astronomical Twilight 6:07 AM PST 6:43 PM PST
Moon 9:44 AM PST (1/15) 10:12 PM PST (1/15)
Length of Visible Light 10h 10m
Length of Day
9h 03m
Waxing Crescent, 20% of the Moon is Illuminated
Jan 15
Waxing Crescent
Jan 18
First Quarter
Jan 26
Full
Feb 3
Last Quarter
Feb 9
New

Hourly Weather History & Observations

Time (PST) Temp. Windchill Dew Point Humidity Pressure Visibility Wind Dir Wind Speed Gust Speed Precip Events Conditions
12:03 AM 35.6 °F 32.8 °F 33.8 °F 93% 30.55 in 2.0 mi East 3.5 mph - N/A Rain Light Rain
12:19 AM 35.6 °F 31.7 °F 33.8 °F 93% 30.55 in 2.0 mi East 4.6 mph - 0.01 in   Overcast
12:27 AM 35.6 °F 30.7 °F 33.8 °F 93% 30.55 in 2.0 mi ESE 5.8 mph - 0.01 in   Overcast
12:34 AM 35.6 °F 32.8 °F 33.8 °F 93% 30.55 in 2.5 mi East 3.5 mph - 0.01 in   Overcast
12:55 AM 35.1 °F 31.0 °F 34.0 °F 96% 30.55 in 4.0 mi East 4.6 mph - 0.01 in   Overcast
1:55 AM 35.1 °F 32.2 °F 34.0 °F 96% 30.56 in 6.0 mi ESE 3.5 mph - N/A   Overcast
2:12 AM 35.6 °F - 35.6 °F 100% 30.57 in 6.0 mi Calm Calm - N/A   Overcast
2:55 AM 36.0 °F 33.3 °F 34.0 °F 93% 30.59 in 7.0 mi East 3.5 mph - N/A   Overcast
3:36 AM 35.6 °F 32.8 °F 33.8 °F 93% 30.59 in 8.0 mi East 3.5 mph - N/A   Overcast
3:55 AM 36.0 °F - 34.0 °F 93% 30.59 in 8.0 mi Calm Calm - N/A   Overcast
4:16 AM 35.6 °F 32.8 °F 33.8 °F 93% 30.59 in 8.0 mi East 3.5 mph - N/A   Overcast
4:55 AM 36.0 °F - 34.0 °F 93% 30.59 in 8.0 mi Calm Calm - N/A   Overcast
5:02 AM 35.6 °F 32.8 °F 33.8 °F 93% 30.59 in 9.0 mi NE 3.5 mph - N/A   Overcast
5:55 AM 36.0 °F - 34.0 °F 93% 30.60 in 10.0 mi Calm Calm - N/A   Overcast
6:18 AM 35.6 °F - 33.8 °F 93% 30.60 in 10.0 mi Calm Calm - N/A   Overcast
6:55 AM 36.0 °F - 34.0 °F 93% 30.61 in 10.0 mi Calm Calm - N/A   Overcast
7:55 AM 36.0 °F 32.1 °F 34.0 °F 93% 30.63 in 10.0 mi NE 4.6 mph - N/A   Overcast
8:38 AM 35.6 °F 30.7 °F 33.8 °F 93% 30.65 in 10.0 mi East 5.8 mph - N/A   Scattered Clouds
8:55 AM 36.0 °F 31.1 °F 34.0 °F 93% 30.65 in 9.0 mi East 5.8 mph - N/A   Clear
9:11 AM 35.6 °F 32.8 °F 33.8 °F 93% 30.65 in 9.0 mi East 3.5 mph - N/A   Partly Cloudy
9:43 AM 35.6 °F 32.8 °F 33.8 °F 93% 30.65 in 10.0 mi East 3.5 mph - N/A   Mostly Cloudy
9:55 AM 37.0 °F - 34.0 °F 89% 30.66 in 10.0 mi Calm Calm - N/A   Mostly Cloudy
10:10 AM 37.4 °F - 33.8 °F 87% 30.66 in 10.0 mi Calm Calm - N/A   Scattered Clouds
10:55 AM 39.0 °F 36.8 °F 35.1 °F 86% 30.67 in 9.0 mi NNE 3.5 mph - N/A   Scattered Clouds
11:55 AM 39.9 °F 36.7 °F 36.0 °F 86% 30.66 in 10.0 mi East 4.6 mph - N/A   Clear
12:55 PM 42.1 °F 37.7 °F 36.0 °F 79% 30.65 in 10.0 mi East 6.9 mph - N/A   Clear
1:55 PM 44.1 °F 40.8 °F 35.1 °F 71% 30.64 in 10.0 mi ENE 5.8 mph - N/A   Clear
2:55 PM 43.0 °F 41.3 °F 36.0 °F 76% 30.65 in 10.0 mi ENE 3.5 mph - N/A   Clear
3:55 PM 42.1 °F 39.2 °F 36.0 °F 79% 30.64 in 10.0 mi East 4.6 mph - N/A   Clear
4:55 PM 37.9 °F 32.1 °F 34.0 °F 86% 30.64 in 10.0 mi East 8.1 mph - N/A   Clear
5:55 PM 36.0 °F 30.3 °F 33.1 °F 89% 30.64 in 10.0 mi East 6.9 mph - N/A   Clear
6:55 PM 36.0 °F 30.3 °F 34.0 °F 93% 30.64 in 10.0 mi ENE 6.9 mph - N/A   Clear
7:55 PM 35.1 °F 28.6 °F 33.1 °F 92% 30.65 in 10.0 mi ENE 8.1 mph - N/A   Clear
8:55 PM 35.1 °F 28.6 °F 33.1 °F 92% 30.64 in 10.0 mi NE 8.1 mph - N/A   Clear
9:06 PM 33.8 °F 26.4 °F 33.8 °F 100% 30.65 in 9.0 mi NE 9.2 mph - N/A   Scattered Clouds
9:18 PM 33.8 °F 25.3 °F 33.8 °F 100% 30.64 in 8.0 mi NE 11.5 mph - N/A   Mostly Cloudy
9:41 PM 33.8 °F 26.4 °F 33.8 °F 100% 30.64 in 6.0 mi NE 9.2 mph - N/A   Overcast
9:55 PM 34.0 °F 28.0 °F 33.1 °F 96% 30.63 in 4.0 mi NE 6.9 mph - N/A   Overcast
10:21 PM 33.8 °F 30.8 °F 32.0 °F 93% 30.63 in 8.0 mi ENE 3.5 mph - N/A   Mostly Cloudy
10:35 PM 33.8 °F 28.6 °F 30.2 °F 87% 30.63 in 8.0 mi NE 5.8 mph - N/A   Scattered Clouds
10:55 PM 33.1 °F 30.0 °F 32.0 °F 96% 30.63 in 7.0 mi East 3.5 mph - N/A   Partly Cloudy
11:55 PM 34.0 °F 26.6 °F 32.0 °F 92% 30.63 in 8.0 mi NE 9.2 mph - N/A   Clear